Regional Weather Roundup
Issued by NWS

Home | Current Version | Previous Version | Graphics & Text | Print | Product List | Glossary Off
Versions: 1 2 3 4 5 6 7 8 9 10 11 12 13 14 15 16 17 18 19 20 21 22 23 24 25 26 27 28 29 30 31 32 33 34 35 36 37 38 39 40 41 42 43 44 45 46 47 48 49 50

000
ASUS45 KBOU 221010
RWRCO

WEATHER ROUNDUP FOR COLORADO
NATIONAL WEATHER SERVICE PUEBLO CO
400 AM MDT SUN APR 22 2018

NOTE: "FAIR" INDICATES FEW OR NO CLOUDS BELOW 12000 FEET WITH NO
SIGNIFICANT WEATHER AND/OR OBSTRUCTIONS TO VISIBILITY.

COZ001>005-013-030-031-221100-
...NORTHWEST COLORADO...

CITY           SKY/WX    TMP DP  RH WIND       PRES   REMARKS
CRAIG          FAIR      30  28  92 SW3       30.23R
HAYDEN         FAIR      35  32  88 E14       30.25R WCI  26
MEEKER         FAIR      33  29  85 CALM      30.24S
RABBIT EARS PA NOT AVBL
STEAMBOAT SPGS FAIR      30  30 100 CALM      30.25R
WALDEN         FAIR      25  21  86 SE3       30.27R
$$

COZ006>008-011-221100-
...WEST CENTRAL VALLEYS...

CITY           SKY/WX    TMP DP  RH WIND       PRES   REMARKS
GRAND JUNCTION FAIR      45  35  68 SE12      30.19S
MONTROSE       FAIR      37  30  75 SE8       30.26R
EAGLE          FAIR      28  27  96 CALM      30.31R
RIFLE          FAIR      35  32  88 CALM      30.26R
DELTA          NOT AVBL
NUCLA          FAIR      37  28  70 SE7       30.26R
$$

COZ017>023-064>068-221100-
...SOUTHWEST COLORADO...

CITY           SKY/WX    TMP DP  RH WIND       PRES   REMARKS
DURANGO        FAIR      32  16  51 CALM      30.19R
CORTEZ         FAIR      32  21  64 NE8       30.19F WCI  25
PAGOSA SPRINGS FAIR      31  17  54 CALM      30.23S
TELLURIDE      FAIR      32  25  76 SE6       30.33R WCI  26
WOLF CREEK PAS FAIR      27  16  63 NW9       30.38R WCI  17
$$

COZ009-010-012-014-032>034-037-058>063-221100-
...CENTRAL COLORADO...

CITY           SKY/WX    TMP DP  RH WIND       PRES   REMARKS
ASPEN          FAIR      28  25  88 S3        30.28R
BUENA VISTA    FAIR      32  26  77 CALM      30.24S
COPPER MTN     NOT AVBL
BERTHOUD PASS  CLOUDY    23  12  63 MISG      30.33S
COTTONWOOD PAS FAIR      41  27  56 W9G16     30.27S
GUNNISON       FAIR      24  23  96 CALM      30.30S
KREMMLING      FAIR      34  32  93 CALM      30.29S
LEADVILLE      FAIR      24  21  88 NE5       30.29S WCI  18
MONARCH PASS     N/A     23  21  93 W22G28    30.43F WCI   8
SALIDA         FAIR      32  28  86 CALM      30.30F
SUNLIGHT       FAIR      28  27  93 W7        30.38S WCI  21
WILKERSON PASS FAIR      28  23  80 N15G26    30.30S WCI  17
$$

COZ069>075-221100-
...SAN LUIS VALLEY/SANGRE DE CRISTO MOUNTAINS...

CITY           SKY/WX    TMP DP  RH WIND       PRES   REMARKS
ALAMOSA        FAIR      28  23  81 E3        30.23S
DEL NORTE      FAIR      33  20  58 W8        30.25S WCI  26
LA VETA PASS   FAIR      28  23  80 SW15      30.37R WCI  17
SAGUACHE       NOT AVBL
$$

COZ035-036-038>040-221100-
...NORTHERN COLORADO FRONT RANGE...

CITY           SKY/WX    TMP DP  RH WIND       PRES   REMARKS
DENVER INTL AP FAIR      32  29  88 SE7       30.14F WCI  26
DMNS CITY PARK NOT AVBL
AURORA         PTCLDY    35  33  91 E5        30.15S WCI  31
FRONT RANGE AP FAIR      33  32  96 S7        30.15F WCI  27
ERIE MUNI ARPT FAIR      31  30  97 CALM      30.21S FOG
BOULDER MUN AP FAIR      34  32  93 W5        30.16R WCI  30
CENTENNIAL     FAIR      34  31  88 S10       30.14S WCI  26
BROOMFIELD     FAIR      34  32  93 NW5       30.16R WCI  30
LOVELAND       MOCLDY    32  30  93 CALM      30.17S FOG
LONGMONT       FAIR      32  30  93 CALM      30.18R
$$

COZ041-046-047-076>085-087-088-221100-
...PIKES PEAK/PALMER DIVIDE AND SOUTHERN FOOTHILLS...

CITY           SKY/WX    TMP DP  RH WIND       PRES   REMARKS
COLO. SPRINGS  FAIR      35  32  88 CALM      30.18S
A. F. ACADEMY  FAIR      32  30  93 N3        30.17S
SCHRIEVER AFB  NOT AVBL
CHEYENNE MTN   NOT AVBL
ELLICOTT         N/A    N/A N/A N/A W3        30.17R
FALCON         FAIR      32  31  94 NW6       30.17S WCI  26
FORT CARSON    FAIR      35  33  96 S3        30.17R
LIMON          CLOUDY    36  35  96 S7        30.16F
MONUMENT HILL  FAIR      30  28  93 SW9       30.18S WCI  22
CANON CITY     FAIR      34  32  93 CALM      30.18R
WALSENBURG     CLOUDY    34  32  93 CALM      30.18R
TRINIDAD       MOCLDY    36  33  89 NE5       30.17R
$$

COZ042>045-048>051-090-091-221100-
...NORTHEAST COLORADO...

CITY           SKY/WX    TMP DP  RH WIND       PRES   REMARKS
GREELEY ARPT   FAIR      30  28  93 NW3       30.17S FOG
AKRON          FAIR      33  30  88 S6        30.15S WCI  28
BURLINGTON     FAIR      31  30  96 SE5       30.19S FOG     WCI  26
WRAY           CLOUDY    36  36 100 CALM      30.21R FOG
YUMA           NOT AVBL
STERLING       NOT AVBL
HOLYOKE        CLOUDY    37  36  93 SE5       30.20S FOG
FORT MORGAN    FAIR      33  31  94 CALM      30.17R
$$

COZ086-089-092>099-221100-
...SOUTHEAST COLORADO...

CITY           SKY/WX    TMP DP  RH WIND       PRES   REMARKS
PUEBLO         CLOUDY    39  38  96 E5        30.18S
LA JUNTA       CLOUDY    41  39  93 E5        30.18F
LAMAR          MOCLDY    31  29  92 S7        30.17F FOG     WCI  24
SPRINGFIELD      N/A     37  37 100 CALM      30.18F
$$





USA.gov is the U.S. government's official web portal to all federal, state and local government web resources and services.